Back to catalog

MOLNIYA 1-69

LostCommunicationsHEO
NORAD 17078·PAYLOAD·🇷🇺 Russia

Launched Nov 15, 1986 from Plesetsk Cosmodrome

Loading…

Next Passes (next 24 hours)

TLE

StaleSource: Space-Track

Epoch: Apr 16, 2026, 15:50 UTC

1 17078U 86089A   26106.66017765 -.00001812  00000-0 -44311-2 0  9996
2 17078  63.4974  20.1387 7348471 252.8245  21.0226  2.00905937288906

Track MOLNIYA 1-69 in real time with AllMySat

Download on the App Store